Theta_e
328 328 325 326 320 319 316 313 297 298 287 288 286 286 289 295 296 293 295 296 295 298 300 299 298 300 298 297 298 299 300 298 298 294 294 303 312 319 316 318 319 321 324 333 338 338 338 341 349 351 353 354 354 354 353 353 352 353 350 353 353 352 351 348 348 348 348 348 348 347 347 349 349 349 349 348 348 348 348 349 350 350 348 347 347 347 347 346 345 345 346 346 345 348 349 351 352
325 322 320 323 318 318 310 303 293 290 286 286 288 288 292 293 292 292 293 295 296 299 298 298 298 299 302 300 298 301 300 302 303 301 305 312 311 314 315 317 320 321 324 330 337 339 340 340 345 348 349 349 351 353 353 351 351 350 352 352 352 353 351 350 348 347 349 348 348 348 349 349 348 349 349 349 348 348 348 348 350 350 349 348 347 347 347 347 346 345 345 346 345 347 349 351 352
323 323 321 319 317 314 309 301 295 285 284 282 286 290 293 292 292 293 295 296 297 298 296 297 301 299 298 299 299 297 293 304 306 306 308 312 308 311 314 317 322 323 323 327 333 336 337 339 343 344 343 344 346 347 347 347 347 347 349 348 347 349 351 349 351 350 349 348 349 349 349 349 349 350 348 349 349 348 348 348 349 349 347 347 347 347 347 346 345 345 344 344 344 347 348 352 352
323 322 319 314 311 306 300 295 289 285 285 283 286 288 292 291 292 293 296 297 298 296 298 298 298 301 299 296 295 299 298 301 305 306 307 308 308 312 314 317 320 319 320 321 324 328 331 336 341 343 341 340 341 341 341 342 345 348 347 347 350 350 350 350 350 351 350 350 350 350 350 348 348 349 349 349 350 348 347 347 348 348 347 347 348 347 348 347 347 345 344 345 343 345 347 351 353
319 321 321 312 306 301 297 294 287 283 284 284 284 289 292 292 294 294 297 296 296 296 296 297 296 301 302 299 301 295 296 301 304 307 307 310 314 314 315 317 313 313 314 315 317 319 321 330 333 334 340 341 341 341 342 343 344 344 345 347 347 347 349 350 348 347 346 346 346 348 347 346 347 346 345 346 347 348 347 347 348 348 347 347 347 348 348 347 347 346 346 345 345 346 347 349 353
314 315 316 312 305 307 296 287 289 286 288 287 287 290 292 292 294 294 297 297 298 296 297 297 295 296 296 298 301 296 302 298 305 305 308 309 312 314 313 311 309 309 310 311 312 314 318 327 327 328 330 331 337 341 342 343 343 343 343 344 346 347 346 346 349 349 348 348 348 349 349 348 347 347 346 346 345 348 348 346 347 347 349 346 347 348 348 348 348 347 346 347 347 348 348 349 353
313 307 308 302 304 301 291 285 286 286 292 290 290 291 292 293 294 295 296 297 298 298 299 298 300 298 295 298 299 302 303 305 304 305 308 309 310 310 311 307 306 306 308 309 309 311 316 326 326 327 327 328 331 333 334 338 341 342 342 343 344 344 345 345 346 346 344 344 347 349 349 348 347 347 347 347 347 347 348 348 347 347 346 346 347 347 348 348 348 349 350 349 349 348 348 347 350
312 305 303 296 294 293 289 286 288 286 293 293 293 292 292 295 293 294 294 294 295 294 295 297 298 296 294 300 293 300 302 302 304 306 307 308 308 309 310 307 304 304 305 307 308 309 319 323 325 325 326 328 329 329 332 334 335 338 342 342 342 343 343 344 344 345 345 345 344 345 345 344 347 347 346 347 346 346 347 346 346 346 346 346 347 347 347 348 348 348 349 350 349 348 348 348 347
309 307 302 296 291 290 287 288 291 290 293 294 294 295 301 296 295 293 293 295 294 293 295 298 297 294 294 295 294 299 300 302 303 306 306 306 306 306 309 308 305 303 303 304 306 307 309 319 323 323 324 326 328 328 329 330 330 333 334 337 341 342 342 342 343 343 343 345 344 343 342 344 342 343 348 347 346 347 347 346 346 346 346 346 346 347 347 348 347 348 347 348 347 348 348 348 347
306 302 297 294 291 288 287 289 287 291 292 293 293 296 296 296 295 293 293 294 294 296 296 298 298 296 296 293 294 296 298 301 302 303 304 305 305 304 305 306 307 303 302 302 304 305 307 316 320 321 321 322 325 327 328 328 329 329 330 331 333 334 336 339 341 342 342 342 342 343 343 344 339 340 341 343 348 347 346 346 346 347 347 346 347 347 347 347 347 347 346 347 346 347 347 347 347
296 298 299 291 288 284 286 288 288 292 293 292 294 295 295 295 294 293 294 293 294 294 296 298 295 294 294 293 294 301 301 300 300 300 303 303 303 303 301 303 304 304 301 302 303 303 303 305 314 318 318 318 321 322 324 325 326 328 328 328 329 330 331 334 336 338 340 340 342 342 342 342 343 342 341 341 341 344 346 347 346 347 345 346 347 347 347 347 346 347 346 346 347 346 346 347 347
297 294 293 287 289 286 286 287 289 289 292 291 296 295 296 295 294 293 293 293 293 293 294 295 295 296 292 292 293 296 298 298 298 301 302 302 301 302 301 301 302 302 302 301 302 302 302 303 304 312 315 315 316 318 319 321 322 324 325 325 327 328 328 329 330 332 334 337 339 341 342 342 341 342 341 340 340 340 341 346 345 344 346 346 345 345 345 345 345 346 346 347 346 346 347 347 347
296 293 289 288 289 287 286 287 288 291 287 291 294 299 295 295 294 292 291 292 291 293 293 296 299 295 290 291 295 296 295 297 298 300 301 299 299 300 300 299 301 301 302 302 300 301 302 302 302 304 309 311 313 314 315 317 318 320 320 320 322 324 325 326 327 329 330 331 334 336 337 338 338 340 340 339 339 339 338 340 345 345 345 346 346 346 345 345 345 345 346 346 346 346 347 347 347
298 296 292 293 290 287 287 288 288 288 290 293 292 295 296 295 295 292 294 292 293 292 296 297 297 296 292 291 293 292 294 297 297 299 298 298 298 298 299 298 299 300 300 300 299 300 300 301 301 301 304 303 302 306 311 314 315 318 316 317 318 319 320 322 323 325 327 329 331 332 332 332 333 334 336 338 339 339 339 339 338 343 346 346 345 345 345 344 343 342 344 346 345 345 346 347 347
298 296 290 290 288 286 288 289 289 285 290 292 296 296 294 296 293 293 295 292 293 296 296 298 298 295 289 289 289 293 295 297 298 299 298 297 297 297 297 297 298 299 298 298 299 299 299 300 300 299 302 302 301 302 303 304 312 315 314 313 314 315 317 318 319 320 323 325 327 327 327 326 326 328 330 332 334 335 334 334 335 339 342 343 344 345 345 344 342 342 345 346 345 344 345 345 346
300 296 292 291 288 286 289 287 287 287 291 293 295 293 294 295 295 293 294 295 294 296 296 293 296 292 292 291 292 294 295 297 298 298 296 295 295 296 295 295 295 296 297 298 298 298 298 299 299 298 299 301 300 301 302 300 306 312 311 311 312 312 314 315 316 316 317 318 320 322 321 324 325 327 326 328 328 331 330 329 330 337 339 340 342 343 343 344 344 345 345 345 344 343 343 343 342
300 297 292 287 289 288 289 290 286 288 291 293 294 295 292 291 295 294 296 296 292 291 292 293 293 295 293 293 294 294 295 300 300 296 295 294 293 293 294 294 294 294 297 297 297 298 297 298 298 297 297 299 299 299 301 300 302 309 306 307 309 310 311 313 313 312 312 313 314 316 318 323 325 327 328 329 325 328 325 324 328 334 337 338 339 341 343 342 342 344 344 344 343 342 338 336 334
297 292 287 288 290 288 291 290 289 291 291 292 293 293 293 290 293 294 296 293 292 291 291 292 293 293 294 295 295 295 296 294 294 294 293 292 292 291 291 292 292 292 293 294 295 297 296 296 298 297 297 298 298 299 301 299 299 303 298 298 300 302 306 308 305 305 308 307 310 311 315 319 321 323 325 325 328 328 328 325 325 329 334 335 336 339 340 340 339 340 344 343 341 339 335 336 333
295 289 287 290 286 293 293 292 291 291 293 292 293 293 291 292 293 293 291 290 290 289 289 290 290 291 292 292 293 293 293 293 293 293 292 292 291 290 290 291 291 291 292 293 294 295 296 295 297 297 296 297 297 297 300 298 297 298 297 298 299 303 301 302 302 303 302 302 303 308 312 315 317 320 322 322 323 322 323 322 324 327 330 331 332 334 336 339 340 341 342 341 339 336 335 334 333
298 291 288 287 290 295 293 293 295 294 294 292 293 294 293 293 293 293 291 290 290 288 287 288 288 288 289 291 291 292 292 292 292 292 291 291 291 290 289 291 289 290 291 291 293 296 295 294 296 296 296 296 297 296 298 296 296 297 297 297 297 297 298 299 300 300 299 299 302 306 309 312 314 316 318 319 320 325 326 323 324 324 325 326 325 327 329 333 338 338 338 338 335 331 333 333 333
297 290 289 293 292 292 295 293 294 294 292 293 292 293 292 294 293 292 291 289 289 288 290 290 288 289 289 290 291 290 290 290 290 291 291 291 292 293 290 291 290 290 291 292 292 293 294 294 295 295 295 296 296 295 296 295 296 296 296 296 297 297 297 298 299 298 298 298 301 305 306 306 307 310 315 318 321 322 323 324 325 326 327 328 325 328 328 329 330 332 333 333 333 332 332 333 333
294 292 291 293 293 292 295 293 293 292 292 290 290 292 293 294 292 292 292 289 287 290 291 290 291 291 290 290 290 290 289 290 289 289 290 291 291 291 290 289 291 290 291 290 291 291 292 293 294 294 294 294 295 295 295 296 295 295 295 295 296 296 297 297 298 297 297 298 300 303 303 301 301 305 310 314 317 319 320 321 323 324 325 326 327 328 329 329 329 331 331 331 331 331 331 331 332
293 288 292 292 292 293 293 293 294 291 291 290 291 294 291 290 290 291 289 288 289 291 292 291 291 291 291 290 290 289 289 289 289 289 290 290 291 291 291 290 289 290 290 290 290 290 293 292 293 293 293 294 293 294 294 293 293 294 295 295 295 294 296 296 297 297 297 298 300 301 300 298 299 302 305 307 309 310 311 315 317 319 321 324 326 327 328 329 328 328 329 329 330 329 329 330 330
293 291 290 295 293 295 293 294 292 289 290 293 292 292 292 291 290 291 288 290 291 291 292 291 291 291 290 288 288 288 289 289 289 290 290 290 291 292 292 291 290 289 289 289 289 290 291 291 291 291 292 293 292 292 292 291 292 294 294 295 294 296 296 295 295 296 297 297 300 300 299 297 298 300 301 301 301 303 305 311 314 316 318 321 324 326 326 327 328 328 327 328 328 328 328 328 329
294 292 293 293 294 294 293 291 290 290 291 289 291 292 292 291 290 289 287 289 290 290 291 290 290 289 288 288 288 288 288 288 289 290 291 289 290 292 291 290 289 289 289 289 289 289 290 292 290 291 291 292 292 292 291 292 292 292 292 292 292 297 293 294 294 295 295 296 298 298 298 297 297 299 298 298 299 300 305 310 310 311 314 316 320 322 324 325 326 327 326 326 327 327 327 327 328
294 295 293 293 294 293 292 293 291 292 292 289 290 289 291 290 291 288 288 289 290 290 289 289 288 287 287 287 287 287 287 287 289 289 290 289 290 289 289 289 289 288 289 289 289 289 290 291 290 290 291 292 292 291 291 292 292 292 292 292 292 294 292 293 293 293 294 295 296 296 297 297 297 297 297 297 297 299 304 305 306 309 311 314 318 320 322 324 324 326 326 325 326 326 326 327 327
295 293 293 293 293 292 293 293 292 290 292 291 290 289 290 291 292 286 289 289 289 289 288 287 287 287 287 287 287 287 287 287 288 289 288 289 288 288 288 287 287 288 289 288 288 289 291 289 290 290 291 292 291 291 291 291 292 291 292 292 292 292 293 293 293 293 293 294 295 296 296 297 297 297 296 296 297 299 302 302 305 306 307 309 313 316 320 321 323 323 324 325 325 325 326 326 326
294 293 292 291 290 291 291 292 291 291 293 288 288 288 290 291 291 288 290 290 289 288 287 286 286 286 287 287 287 287 287 287 287 287 289 288 288 287 286 287 287 288 288 288 288 289 289 288 289 290 290 291 291 290 291 291 290 291 291 291 291 292 292 292 292 292 293 293 294 295 295 296 297 296 296 296 296 298 300 302 303 302 302 306 310 313 316 318 320 322 323 325 325 325 325 326 326
294 292 290 288 288 292 290 291 291 290 292 290 289 288 287 289 289 290 291 290 289 287 286 286 286 286 286 286 286 286 286 286 286 286 287 287 287 288 286 287 288 287 288 289 288 288 287 289 290 290 290 289 290 290 290 290 290 291 291 291 291 292 291 291 291 292 292 293 294 294 294 294 295 295 295 295 296 297 298 300 300 300 301 304 306 309 311 314 317 319 321 323 323 324 324 323 324
293 290 289 289 286 287 289 292 290 291 292 290 291 285 282 289 291 289 291 289 287 286 286 286 285 285 285 285 285 285 286 286 285 286 286 287 288 287 286 286 290 288 288 287 287 287 289 291 293 292 291 289 291 290 291 290 290 291 291 291 291 291 291 291 291 291 292 292 293 293 293 293 294 295 295 295 295 296 297 298 298 298 300 302 303 306 308 312 314 316 318 320 319 321 322 322 322
290 290 287 284 284 284 289 291 290 291 292 289 292 286 284 284 288 289 290 289 287 286 286 285 285 285 285 284 285 285 285 285 286 286 289 289 287 286 285 285 286 286 287 287 286 287 287 288 292 290 290 289 289 290 290 290 291 290 290 290 290 290 290 290 290 290 291 291 292 292 292 292 293 293 294 294 294 295 296 297 297 298 300 301 302 304 306 309 312 314 316 317 319 320 321 321 322
288 287 282 282 285 282 289 290 290 291 291 290 290 285 287 288 288 289 290 288 287 286 285 285 285 285 284 284 284 285 285 286 287 288 289 287 287 285 286 285 285 286 286 286 286 287 286 287 289 287 288 289 289 290 290 290 290 290 290 292 290 290 289 289 289 290 290 291 291 290 291 291 291 292 292 293 293 295 295 296 296 297 299 300 300 302 303 305 308 311 312 314 315 318 319 320 322
284 286 281 283 283 282 287 290 290 290 291 291 291 286 285 285 287 288 288 288 287 285 285 284 284 284 285 284 284 284 284 285 286 286 288 287 286 285 285 286 286 286 286 286 285 285 286 287 288 288 288 288 289 289 289 289 290 289 289 289 289 289 289 289 289 290 290 290 290 289 290 290 290 290 290 291 292 294 295 295 296 297 298 299 299 300 301 304 306 308 310 311 313 315 318 319 320
279 283 284 282 284 283 282 285 287 289 290 288 288 287 289 286 287 288 288 287 285 285 285 284 285 284 284 284 284 284 284 284 284 285 287 286 286 286 285 288 286 286 286 285 285 285 286 286 287 289 288 288 288 289 289 289 289 289 289 289 289 288 288 288 289 289 288 288 288 288 288 288 289 288 289 290 291 293 294 295 296 297 298 298 298 299 300 302 304 306 306 308 310 312 314 318 319
281 282 281 283 282 283 284 283 285 290 289 287 286 286 288 286 287 287 288 287 286 285 285 285 284 284 283 284 283 283 283 283 284 284 285 286 285 286 285 285 286 285 285 284 284 285 285 286 287 287 288 288 288 288 289 289 289 288 288 288 287 287 287 288 288 287 287 286 286 286 287 287 288 288 289 290 291 292 294 295 295 296 297 297 297 298 298 299 301 303 303 304 306 307 309 315 320
284 283 283 282 281 285 283 285 285 289 287 287 287 287 288 286 286 287 287 286 285 285 284 284 284 283 283 283 283 283 283 283 284 285 285 285 284 285 285 285 285 284 284 284 285 285 285 285 286 287 287 288 288 288 288 287 287 287 286 286 286 286 286 286 286 286 286 285 286 286 286 287 288 287 287 288 290 292 293 294 294 295 296 296 296 296 296 297 297 299 301 303 303 304 306 310 318
285 285 283 283 282 284 285 286 288 287 287 286 287 287 287 287 286 288 288 286 284 283 283 283 283 283 283 283 283 283 283 283 285 286 284 284 285 284 284 283 283 282 283 283 283 284 284 285 286 286 286 287 287 287 287 286 285 285 285 284 284 284 284 285 285 284 284 285 285 285 286 286 285 285 286 286 287 290 291 293 293 294 295 296 296 296 296 297 298 299 301 302 301 300 301 305 313
285 284 282 283 281 282 286 286 287 287 286 283 282 283 285 287 286 287 287 284 284 284 284 283 283 283 283 283 283 283 283 284 285 284 284 283 283 284 283 283 285 282 283 283 283 283 284 285 285 285 286 286 286 286 286 286 285 285 284 283 283 283 283 283 282 283 284 285 285 285 284 284 284 284 285 285 285 286 287 290 292 294 295 295 295 296 296 297 298 298 300 299 300 299 299 302 305
284 283 281 281 283 283 286 286 286 287 286 284 284 284 285 285 286 286 286 285 287 286 286 285 284 283 283 283 283 283 282 282 282 283 283 282 283 283 282 282 282 282 282 282 282 283 284 284 284 284 285 285 285 286 286 285 285 285 284 283 283 283 283 283 283 284 284 283 283 283 284 284 284 283 284 284 285 286 287 288 290 292 293 294 294 295 295 295 296 297 298 298 297 299 299 300 301
283 282 282 282 283 282 280 283 284 285 284 283 283 284 285 287 287 287 287 286 286 287 286 284 284 283 283 283 283 283 282 281 281 282 282 281 281 280 281 281 282 282 282 281 282 283 284 284 283 284 284 285 285 285 287 285 285 285 284 284 283 283 282 284 283 283 283 282 282 283 283 283 283 283 283 284 285 286 286 286 288 290 292 294 295 295 295 295 296 296 297 298 299 296 296 296 299
282 283 282 282 282 283 282 283 284 284 284 283 284 284 283 285 286 287 286 286 285 284 283 282 283 283 284 283 283 282 282 280 281 281 281 281 282 282 281 281 281 282 282 281 282 283 285 283 284 284 284 284 284 285 284 284 284 283 283 283 283 282 282 281 281 280 281 281 281 281 281 282 282 283 283 284 284 284 285 286 287 288 290 293 294 295 295 295 296 297 298 298 298 296 295 296 297
279 282 285 285 284 284 283 282 283 280 279 280 281 278 276 279 284 286 282 281 283 282 282 282 283 282 282 282 282 282 283 280 281 281 281 281 280 280 280 280 281 281 281 282 282 283 283 283 284 284 284 284 284 284 283 284 283 282 281 280 279 279 278 278 278 278 278 279 279 280 281 281 282 282 283 283 283 283 283 285 286 288 289 292 294 295 295 296 296 297 297 297 297 298 296 295 294
281 284 283 285 284 283 282 281 282 277 275 281 281 276 276 278 281 283 281 280 282 280 281 282 282 282 282 282 282 281 281 280 281 281 280 280 280 280 280 279 280 281 281 282 282 282 283 283 284 284 283 283 284 283 283 283 282 281 280 279 279 278 278 278 279 279 279 279 280 279 280 280 281 281 281 282 282 282 283 284 285 287 288 290 292 294 295 295 296 297 297 296 297 298 298 294 294
281 282 281 282 283 282 281 282 281 279 279 281 281 279 275 276 281 283 283 281 281 280 280 281 282 282 282 281 281 280 281 280 281 280 280 280 279 279 280 280 280 281 281 282 282 283 282 283 283 283 283 283 283 282 282 282 281 281 280 279 280 279 278 278 279 279 280 280 279 278 279 279 280 280 281 281 281 281 282 282 283 284 287 290 292 293 294 296 297 297 296 296 297 297 297 295 294
281 283 282 283 282 281 281 281 279 278 277 276 278 281 276 275 277 280 280 279 279 280 280 280 281 282 281 281 280 280 280 280 280 280 279 280 280 279 280 280 281 281 281 281 282 282 283 283 283 282 282 282 282 282 282 281 281 281 280 279 278 279 279 279 279 279 278 278 277 278 278 278 279 279 280 280 280 280 280 280 281 282 284 287 291 293 294 296 296 297 296 295 296 297 297 296 295
284 282 283 282 283 282 282 279 279 276 274 274 279 279 273 278 278 278 278 278 279 281 281 281 281 282 281 280 280 280 280 280 279 280 279 279 279 280 280 280 280 281 281 282 282 282 282 282 282 282 281 281 281 281 280 280 280 280 279 279 278 278 278 278 278 277 277 277 276 276 277 277 278 278 278 279 279 279 279 279 280 281 283 287 290 292 293 294 296 298 297 295 295 296 297 297 295
284 281 282 279 279 279 278 277 276 271 268 277 280 278 278 275 277 279 277 279 282 283 281 281 281 281 280 280 280 280 280 280 279 280 279 279 279 279 280 280 280 280 280 281 281 282 282 282 281 281 281 281 281 280 280 279 279 279 279 278 278 277 277 277 276 276 276 276 275 275 276 276 277 277 277 277 277 278 278 279 280 280 282 286 289 291 292 292 294 296 297 296 296 296 296 297 296
283 281 279 280 280 275 272 269 273 269 270 275 277 279 279 271 276 279 283 282 282 284 282 281 281 281 280 280 279 279 279 279 280 279 279 279 279 279 280 280 279 280 280 280 281 281 281 281 281 280 281 281 280 280 280 280 279 279 278 278 278 277 277 276 275 275 275 275 275 275 276 275 275 276 276 276 276 277 277 278 278 279 281 284 287 290 290 292 293 294 295 296 295 296 297 296 296
281 279 277 275 271 271 269 269 269 268 273 275 273 276 275 276 282 280 282 284 282 282 284 283 282 281 279 279 279 279 279 279 279 279 279 279 278 279 279 279 279 279 280 280 281 280 280 280 280 280 280 280 280 279 279 279 279 278 278 278 277 278 277 276 275 275 275 275 275 275 274 274 274 274 274 274 275 276 276 276 277 278 280 284 285 287 290 291 292 293 294 295 296 295 295 295 294
279 280 275 274 269 267 270 271 267 268 275 275 275 277 274 280 281 285 286 286 285 283 283 284 283 281 280 280 279 279 279 279 279 279 278 278 278 278 279 279 279 279 280 281 280 280 280 280 279 280 280 280 280 280 279 279 279 278 278 277 277 277 276 276 276 275 275 275 275 275 274 274 274 274 274 274 275 275 275 276 277 277 279 279 281 285 288 289 290 291 293 294 294 295 294 294 294
280 279 281 278 273 272 273 273 274 278 278 274 276 272 270 272 278 278 278 277 276 282 282 280 282 281 280 279 279 279 278 278 278 278 278 278 279 278 279 279 279 279 280 280 279 279 279 279 280 279 279 280 279 279 279 278 278 278 277 277 277 277 276 276 276 276 276 275 275 274 274 274 274 274 274 274 275 275 275 275 276 276 277 278 281 284 286 287 287 288 291 293 293 293 293 293 293
280 278 278 275 277 279 277 274 271 276 274 275 271 274 276 280 279 279 276 277 277 278 277 279 279 279 279 278 278 278 278 279 278 278 278 278 278 278 278 279 279 280 279 279 279 279 279 279 279 279 279 279 279 279 278 278 278 277 277 276 276 276 277 276 276 276 275 275 274 274 274 274 274 274 274 274 274 274 274 274 275 275 276 278 279 281 284 285 286 286 289 292 292 293 292 292 293
278 279 276 279 280 281 276 273 274 273 275 274 275 276 280 280 279 275 277 276 276 276 277 278 278 278 278 278 278 278 278 278 278 278 277 278 277 278 278 279 279 279 278 278 278 278 279 279 279 278 278 278 278 278 278 277 277 276 276 275 275 275 275 274 274 274 274 274 274 274 274 274 274 274 273 274 274 274 274 274 274 275 276 277 278 280 282 283 285 285 287 289 291 292 292 291 292
280 274 279 279 280 280 275 271 273 273 271 275 272 276 279 277 279 276 276 275 275 275 275 277 277 277 277 278 277 278 278 278 278 278 277 278 278 279 279 279 278 278 278 278 278 278 279 278 277 277 278 277 278 277 277 277 276 275 275 275 275 274 274 274 274 274 274 274 274 274 273 273 273 273 274 274 274 273 273 274 273 274 275 276 278 279 280 282 284 285 286 288 291 292 291 291 291
280 279 282 280 275 273 274 270 271 270 272 273 277 278 279 281 281 273 274 274 275 275 275 275 276 276 277 277 277 277 277 277 277 277 277 277 278 278 278 277 277 277 278 277 278 278 278 277 277 277 277 277 277 277 276 276 275 275 275 274 274 274 274 274 274 274 274 273 273 273 273 273 273 273 273 273 272 272 272 273 273 274 275 276 276 277 280 282 283 284 285 287 290 291 291 290 291
281 282 279 280 278 278 274 277 276 278 274 275 276 279 278 281 281 280 278 277 277 276 275 275 277 277 277 277 277 277 277 277 277 277 277 278 278 277 276 276 276 277 276 277 277 277 277 277 276 277 277 276 276 275 275 274 274 274 274 274 273 273 273 273 273 273 273 273 273 273 272 272 272 273 273 272 272 272 272 272 273 273 274 274 275 277 279 280 281 282 284 286 288 290 290 290 290
277 277 275 275 276 277 277 276 275 277 274 275 274 273 280 280 281 280 280 279 278 277 276 277 278 277 277 277 278 277 278 277 278 277 277 277 276 276 276 275 276 275 276 277 276 276 276 276 276 276 275 275 275 275 274 274 274 273 273 272 272 272 272 273 272 273 272 272 272 273 273 272 273 272 272 272 272 272 272 272 272 273 274 274 274 276 277 279 280 281 283 284 287 289 289 289 290
279 280 278 279 276 273 272 274 278 276 277 273 274 274 282 282 280 283 282 281 279 278 278 278 277 277 277 277 278 278 278 277 277 276 276 277 276 276 275 275 275 275 275 275 276 275 275 275 275 275 275 274 274 274 273 273 273 273 272 272 271 271 272 272 272 272 272 272 272 272 272 272 272 272 272 272 271 272 272 272 272 272 273 273 273 273 274 276 278 279 280 282 285 288 289 289 289
Wind_Speed
5 4 1 2 2 3 2 3 1 2 5 2 1 3 1 0 0 2 1 1 1 2 1 1 1 4 6 8 15 11 8 6 3 6 1 3 6 7 8 9 9 8 9 10 10 7 6 8 10 8 7 5 5 6 7 7 8 6 7 7 8 9 12 10 10 12 11 12 11 10 11 13 11 11 11 10 10 10 10 8 7 7 10 10 10 10 10 10 10 10 10 11 11 9 7 6 7
3 3 1 3 2 2 1 2 3 2 6 5 1 1 0 2 2 3 4 3 1 1 2 1 10 13 18 14 6 16 14 7 4 5 3 4 6 4 8 9 7 8 9 9 10 9 9 10 12 14 13 10 9 9 9 9 9 10 9 8 9 9 11 9 10 12 11 10 11 11 12 12 13 13 11 11 11 11 11 10 8 6 6 8 10 11 12 11 10 11 10 11 11 10 9 6 8
3 4 3 3 3 2 0 3 0 2 5 3 2 1 1 1 4 2 4 4 4 2 3 6 8 5 3 3 16 9 2 6 9 4 2 1 6 9 11 8 7 8 9 8 9 9 8 9 13 15 18 17 15 15 15 14 13 11 14 12 12 13 11 11 10 11 11 11 12 13 14 14 14 11 9 12 13 11 11 11 9 8 10 10 11 12 12 12 12 11 11 10 11 9 9 6 9
1 0 1 2 1 3 1 3 5 6 5 5 0 2 0 2 3 4 3 2 2 3 1 4 8 5 6 11 2 4 4 1 3 4 2 6 4 8 8 8 10 9 12 10 10 11 10 14 16 15 16 17 18 18 18 18 17 16 14 13 12 13 14 12 12 11 12 13 13 14 14 14 15 13 11 14 14 12 11 11 10 9 10 11 12 13 13 12 12 13 11 10 11 9 9 7 9
1 2 0 1 3 2 1 1 4 3 4 4 4 2 2 3 3 3 1 2 2 5 4 5 7 3 8 6 2 3 4 4 5 6 3 4 9 8 8 8 9 11 12 11 11 11 12 22 21 21 20 18 18 17 16 16 17 18 18 16 15 14 14 14 13 14 14 14 15 12 13 13 12 14 16 15 14 13 11 10 10 9 10 12 12 13 13 13 13 13 11 12 12 11 9 8 11
1 3 2 2 0 2 5 3 4 2 3 4 3 2 3 4 3 4 1 1 1 6 6 6 4 4 4 4 4 4 4 4 3 4 2 6 6 6 6 7 10 13 11 10 11 9 11 20 22 24 24 23 22 21 20 19 19 18 18 18 18 17 15 16 16 13 13 16 13 12 14 13 13 14 13 13 13 11 12 12 12 10 9 11 13 13 13 13 13 14 13 13 11 11 10 8 10
0 3 2 3 2 4 4 5 3 2 1 5 4 2 4 3 4 7 3 1 2 13 6 9 14 11 10 1 4 3 4 4 2 3 3 3 4 7 7 10 11 12 12 11 10 10 13 19 22 24 23 23 23 22 22 22 22 21 19 19 18 19 18 19 18 17 15 15 16 15 13 14 14 13 12 13 11 9 9 8 10 11 12 12 11 12 14 15 14 13 13 13 13 13 11 10 9
1 1 1 2 1 3 3 3 3 3 0 2 3 4 3 1 4 3 1 3 1 4 4 5 5 12 4 3 5 4 7 4 1 3 3 3 5 7 7 8 12 12 11 10 10 10 12 19 20 23 23 23 22 23 22 22 23 22 21 21 21 19 19 19 19 18 17 18 18 18 18 16 15 12 13 12 11 11 11 8 8 9 12 12 11 13 14 15 15 14 13 12 13 12 11 11 10
2 2 1 5 2 3 3 1 1 2 0 1 1 5 3 1 1 4 3 1 3 5 5 7 5 10 3 7 6 2 4 8 7 5 5 6 7 6 7 9 10 10 11 11 9 9 9 17 18 22 23 23 23 23 23 24 24 23 22 22 22 22 21 20 19 18 18 15 16 15 17 17 17 18 14 12 12 13 13 10 11 12 13 12 13 13 14 15 16 15 14 14 13 12 11 12 12
0 2 1 2 3 3 2 1 4 1 1 2 1 0 0 0 3 4 7 5 8 8 5 5 3 13 8 7 2 3 4 7 6 6 6 6 5 6 9 8 7 9 10 11 10 9 9 13 17 19 22 23 23 23 23 24 24 24 24 23 23 23 22 22 21 19 18 18 16 15 15 16 14 21 21 17 13 13 13 12 12 13 13 13 13 14 16 16 16 17 16 15 14 11 10 11 12
2 5 2 3 5 3 2 1 2 2 1 2 2 2 2 1 5 3 2 4 1 5 5 6 9 7 5 3 3 0 2 4 6 4 5 4 6 8 8 7 7 8 11 10 9 10 10 10 15 17 19 21 22 23 23 23 25 24 23 24 23 24 23 23 22 22 21 19 18 18 17 16 15 15 17 19 20 14 11 12 12 13 14 14 14 15 17 18 18 18 17 16 14 12 10 9 11
1 2 2 3 2 2 2 7 3 2 2 2 0 3 0 4 3 4 1 6 2 5 4 3 4 6 8 2 2 3 5 8 4 3 3 4 6 6 6 6 8 9 9 9 10 11 11 9 10 13 16 18 18 20 22 23 24 24 24 25 24 23 23 23 24 23 23 22 21 20 19 19 18 18 17 18 17 22 17 12 13 15 15 14 14 15 18 19 18 19 17 14 13 11 10 10 10
3 1 4 5 1 1 2 6 4 2 1 0 1 0 1 6 3 6 5 6 4 6 5 8 8 4 3 2 2 2 6 5 4 3 4 5 5 5 5 7 7 7 9 10 11 12 10 10 11 11 14 18 15 18 18 20 22 24 24 25 25 24 24 24 23 23 23 23 22 21 20 18 17 16 19 18 17 17 22 19 11 12 15 14 15 16 16 18 18 17 16 15 14 12 12 11 11
2 2 2 0 0 1 4 2 0 4 0 1 1 2 1 2 1 4 7 9 7 5 0 4 3 8 5 4 1 2 2 3 4 4 4 5 5 6 7 6 6 7 7 8 11 9 10 10 10 11 12 12 13 13 15 18 21 22 23 24 24 25 25 25 24 23 21 20 18 17 17 17 16 18 18 19 19 18 16 20 21 14 13 14 15 16 17 16 17 18 18 15 14 14 13 12 12
1 1 3 3 1 1 0 4 6 4 1 0 1 0 3 5 5 4 8 8 3 2 2 4 1 2 6 6 2 1 0 2 3 3 5 5 6 6 6 6 6 6 7 8 8 10 9 8 9 9 10 11 13 11 11 13 19 20 22 24 23 24 25 25 24 24 21 17 16 17 18 17 16 16 15 15 18 18 16 17 18 21 16 16 17 16 18 18 18 22 18 15 15 15 14 13 13
3 4 3 1 1 2 1 2 2 5 1 0 2 4 12 6 4 3 3 1 3 4 1 2 5 2 3 6 5 4 1 0 1 2 5 7 6 6 7 7 6 7 6 7 8 9 8 9 9 9 10 11 11 12 12 14 15 19 19 22 23 24 22 22 23 22 21 19 20 19 17 14 12 12 16 13 12 15 16 16 16 21 22 19 17 17 19 20 19 17 16 17 16 15 15 14 14
2 3 2 3 1 1 1 0 2 1 1 1 3 1 3 2 2 6 4 2 11 4 9 4 4 3 6 5 7 4 1 0 2 5 9 9 7 8 8 8 7 7 7 9 8 8 10 9 10 9 9 10 11 10 10 12 14 18 13 15 18 21 21 20 19 18 18 17 19 18 17 12 10 10 11 11 15 11 14 16 18 22 23 20 20 19 19 18 19 18 17 17 17 16 15 16 15
2 2 3 2 1 2 1 2 5 2 3 1 1 1 14 5 1 4 4 13 11 7 11 5 9 6 4 3 3 3 1 4 5 10 9 8 6 7 8 8 8 8 7 8 9 8 10 9 9 10 10 10 10 8 7 8 10 11 13 13 13 16 13 17 15 15 15 13 18 16 13 11 11 10 10 11 10 12 11 14 15 18 24 22 20 20 21 20 23 22 18 17 17 17 17 11 9
3 2 3 0 3 0 1 2 4 3 3 2 1 1 5 6 9 3 8 2 6 10 5 4 8 5 5 5 3 5 5 8 8 8 8 8 7 7 5 5 6 7 7 7 7 7 8 7 7 8 10 9 10 9 7 8 9 7 9 11 11 13 15 14 12 13 13 14 13 12 11 11 12 11 11 12 12 14 13 14 15 16 19 20 21 21 21 21 20 20 19 18 17 18 13 7 7
1 2 1 1 4 0 1 2 2 3 7 3 1 1 1 3 4 3 6 8 1 12 9 1 5 6 4 2 4 4 7 6 6 7 7 5 4 4 4 4 4 5 5 4 6 5 7 7 7 5 6 6 7 7 6 8 8 7 7 8 9 9 11 11 12 13 12 13 13 11 11 12 13 11 13 15 13 10 11 14 15 15 16 17 20 18 20 21 22 21 20 20 15 10 7 8 7
1 2 1 1 4 2 1 2 3 2 4 4 3 0 3 1 3 5 12 9 1 3 8 11 13 10 7 5 4 5 6 6 5 6 6 4 2 2 2 1 1 3 3 4 4 5 5 6 5 5 5 4 5 6 5 7 7 6 6 6 8 8 8 10 10 12 12 14 13 10 11 11 12 11 11 11 10 10 10 10 11 10 9 10 13 11 10 12 13 11 11 13 9 9 9 8 8
2 2 2 2 0 2 3 4 4 3 1 7 2 4 3 1 5 9 14 9 8 10 9 4 12 10 10 7 5 4 5 6 5 5 4 2 2 2 2 3 2 1 4 5 4 5 4 5 5 4 4 5 6 6 6 6 7 6 6 6 6 6 7 8 8 9 11 13 12 12 11 12 12 11 11 12 12 11 11 11 11 11 11 11 10 10 10 10 11 11 11 11 10 9 10 9 9
1 2 1 2 1 2 3 2 3 4 1 3 1 1 2 2 3 1 1 3 4 4 7 10 9 8 7 6 5 6 5 6 5 5 2 2 1 0 1 1 2 3 4 4 4 4 5 5 6 6 5 5 5 4 5 6 6 5 6 6 6 6 6 6 8 8 9 10 11 12 12 12 12 11 11 12 13 12 13 12 12 12 13 12 10 10 12 11 11 12 11 11 10 10 10 10 10
2 3 1 1 3 2 5 3 4 4 8 1 1 1 2 4 4 0 3 0 6 8 10 9 8 7 6 8 5 7 6 6 5 4 3 2 1 1 2 1 2 0 2 4 4 4 5 6 5 4 4 4 5 5 5 6 5 5 5 5 6 6 6 6 6 6 7 9 9 10 10 10 11 12 12 11 11 11 11 11 11 11 11 12 12 11 12 11 11 10 11 11 11 11 11 11 10
1 1 1 2 0 1 2 4 5 4 2 0 4 3 6 6 5 4 3 5 7 8 8 9 9 7 6 8 6 5 5 4 4 4 2 2 0 0 1 1 0 0 2 3 3 3 4 4 5 6 4 5 6 7 7 7 7 7 7 7 8 8 7 8 8 7 6 7 7 8 8 10 10 10 11 11 11 11 11 10 11 11 12 12 12 12 11 11 12 12 12 12 11 11 10 11 10
2 2 0 1 2 2 2 1 2 4 2 2 3 1 1 3 8 3 5 6 6 8 9 9 8 9 8 8 7 6 5 5 3 2 2 1 1 3 3 1 1 3 2 3 4 4 4 4 5 5 5 6 6 6 7 8 8 9 9 9 9 9 9 10 9 8 8 8 8 6 7 8 9 10 10 10 11 13 11 11 11 11 11 11 12 12 11 11 12 12 13 13 14 12 11 12 10
0 1 1 1 4 3 2 4 2 3 1 1 2 1 3 4 2 3 4 6 8 9 9 6 9 9 7 6 6 5 6 4 4 1 0 1 2 3 3 2 3 3 3 5 4 4 5 5 5 5 5 5 5 6 5 7 7 7 7 6 7 9 11 11 10 10 9 9 9 9 8 8 10 10 10 10 9 10 11 11 10 10 11 11 12 13 12 12 12 12 13 12 9 10 11 11 11
1 1 5 4 6 3 3 0 3 2 0 2 7 2 1 4 1 7 13 10 10 13 9 7 7 7 7 7 7 5 5 4 2 2 2 0 1 2 3 2 3 3 4 4 4 4 5 4 4 4 4 4 5 6 6 6 6 5 4 5 7 8 9 9 10 9 10 10 11 10 9 10 10 10 10 10 11 11 9 10 11 10 10 11 11 12 14 14 13 13 14 14 13 13 12 11 11
1 1 4 6 6 5 1 5 4 4 2 3 5 6 0 3 8 3 14 12 9 11 10 8 8 7 7 6 6 5 5 4 1 2 3 2 0 1 4 1 0 2 2 1 3 4 4 3 3 4 4 5 5 7 6 5 6 6 6 8 9 9 10 9 10 10 9 10 9 10 11 13 11 10 11 12 11 11 11 10 9 10 10 10 12 14 16 14 13 13 13 13 13 12 12 12 10
1 2 1 5 5 6 5 0 1 5 2 6 3 7 6 13 9 4 13 14 9 9 9 9 8 7 6 6 6 5 3 2 3 4 2 1 1 1 5 4 1 1 2 3 3 4 3 3 3 3 4 5 5 6 8 7 8 7 8 9 10 11 11 11 11 10 10 9 9 10 11 12 12 12 12 13 13 12 11 10 9 8 9 11 11 12 12 12 13 14 14 13 12 12 14 13 11
1 1 3 0 3 3 2 1 3 5 2 6 1 7 8 7 8 6 11 14 17 14 10 10 8 8 7 6 6 5 6 5 5 4 2 1 1 2 4 4 4 3 2 2 3 4 3 4 3 3 4 5 7 9 10 9 8 9 10 10 10 12 11 11 11 11 10 10 10 9 10 12 13 14 13 13 14 12 12 11 10 9 8 9 11 10 11 12 12 13 12 14 14 13 14 14 14
1 2 3 3 1 6 9 1 6 6 0 2 5 7 11 8 6 11 12 11 11 12 11 10 10 8 7 6 6 6 6 5 4 3 0 1 3 2 3 3 4 3 1 2 3 3 4 4 4 4 5 7 9 10 10 10 10 9 9 9 10 11 11 11 11 11 11 11 11 11 12 13 13 14 15 15 15 13 12 12 10 9 9 8 9 10 10 12 12 13 13 13 15 15 14 14 13
4 1 3 3 1 5 7 0 2 5 2 1 7 8 5 6 5 9 9 12 11 11 10 10 10 10 9 7 6 5 5 4 3 2 1 2 1 3 1 2 2 1 1 2 3 4 4 5 4 5 8 10 9 10 10 9 10 11 10 10 11 11 11 12 11 11 11 11 11 12 14 15 16 17 18 17 16 15 13 13 11 9 7 8 8 9 10 10 11 13 13 13 13 15 16 16 13
2 2 3 3 3 2 3 7 2 1 3 4 3 6 13 2 5 10 8 10 10 11 12 11 10 8 8 7 6 6 6 5 5 4 2 4 3 3 2 1 1 1 1 2 3 3 4 4 4 5 7 6 6 7 8 8 9 9 9 9 10 12 12 10 11 11 12 11 13 12 16 15 16 17 17 16 15 15 14 13 12 10 8 7 8 8 10 10 11 11 14 13 13 14 16 16 14
3 5 5 7 3 5 8 3 3 1 2 6 3 7 15 3 6 10 13 10 12 13 13 13 11 8 8 8 7 7 6 5 6 5 5 4 4 3 1 1 1 1 1 3 4 4 4 4 4 6 6 7 7 8 8 8 10 8 7 9 10 10 9 10 11 12 11 11 13 15 17 15 15 15 15 15 14 14 13 12 11 11 9 8 8 9 9 10 11 11 12 15 14 13 15 18 16
5 5 6 4 5 10 6 5 4 4 5 7 9 12 13 6 8 10 8 8 13 11 5 6 7 8 8 8 7 7 6 6 5 6 5 4 3 4 1 0 1 1 3 4 4 4 4 4 4 6 6 7 6 7 9 10 9 9 11 11 9 9 11 10 10 10 11 12 13 15 14 13 13 16 19 19 17 14 13 13 13 12 10 8 9 10 10 9 11 13 14 13 15 15 14 16 17
3 0 2 8 5 10 6 5 7 1 2 11 13 11 11 10 9 13 13 8 7 6 10 10 9 10 9 8 8 8 7 7 6 7 5 4 4 2 1 1 3 4 4 3 4 4 4 3 6 8 6 7 8 9 9 10 10 11 9 9 10 10 11 10 8 8 10 9 12 14 14 14 17 17 16 17 19 18 15 14 14 12 11 9 9 10 10 10 11 10 11 10 12 14 14 14 17
3 4 4 9 4 9 9 5 1 0 4 6 2 4 9 12 8 10 7 8 14 14 14 13 12 12 10 11 10 9 7 2 4 4 3 1 2 2 2 3 3 4 4 4 4 4 4 5 6 5 5 5 6 6 8 8 6 7 9 10 10 9 8 10 11 9 10 10 11 15 15 16 15 14 15 16 17 16 16 15 14 13 11 11 11 11 9 8 9 10 8 11 7 9 12 13 14
0 3 2 4 9 5 13 5 3 1 1 11 9 10 9 9 10 7 11 16 16 17 19 20 20 16 12 10 10 9 5 5 6 7 3 0 0 1 1 1 1 1 3 4 4 4 4 4 4 4 4 4 4 5 7 6 6 6 8 9 10 11 8 6 8 10 10 13 14 13 15 15 15 16 13 14 14 14 14 14 13 14 14 13 12 11 10 10 8 10 9 9 12 7 9 12 12
3 1 1 8 4 3 9 2 4 2 1 6 6 13 8 9 10 14 12 15 14 12 11 8 11 16 15 14 11 10 8 7 6 6 5 0 0 0 1 1 2 3 3 4 4 3 2 3 4 3 3 4 5 6 5 5 6 7 7 9 10 9 11 12 10 7 8 11 13 12 11 12 15 14 14 16 12 14 15 15 15 14 16 13 12 12 12 12 9 8 8 7 8 12 9 12 10
3 4 4 6 7 7 7 6 4 4 6 2 11 14 7 10 14 13 6 8 9 6 6 5 7 6 6 5 6 8 10 6 6 5 3 2 1 0 1 2 2 2 3 3 3 2 2 4 3 2 2 4 4 4 4 5 7 9 9 10 7 9 8 8 11 12 11 10 11 10 11 10 12 13 14 13 14 17 16 15 15 14 16 15 13 13 13 12 10 7 8 8 6 8 12 10 14
5 6 11 10 7 8 7 5 6 5 4 3 3 10 1 5 11 15 1 1 9 5 10 12 12 9 8 10 9 7 6 6 7 6 5 3 2 2 1 2 2 3 3 3 2 3 3 3 2 2 3 3 4 4 4 5 7 9 11 12 15 13 13 10 9 13 16 16 15 12 14 15 13 13 12 12 13 13 17 17 15 15 14 14 13 13 13 12 10 9 8 7 6 6 8 11 13
1 7 3 7 6 4 3 5 5 5 1 2 2 3 13 3 3 8 5 6 12 4 11 12 11 11 10 9 9 8 8 4 2 3 2 2 2 1 3 3 3 2 3 3 3 4 4 3 1 1 2 3 3 3 4 5 7 7 8 9 9 11 13 12 10 9 9 12 12 13 14 12 15 14 13 12 13 13 15 15 15 15 13 14 13 13 14 14 12 9 7 6 6 5 6 10 13
5 2 3 4 1 3 3 1 2 6 0 8 3 4 10 14 10 9 9 11 12 10 11 11 12 12 11 9 8 8 8 6 7 6 5 3 3 4 3 3 3 3 3 3 4 4 4 3 1 3 3 3 4 3 4 4 7 8 9 9 9 9 10 13 14 13 12 11 13 14 13 13 13 12 12 13 11 13 14 16 18 18 16 13 12 13 15 14 11 8 7 7 6 5 7 9 12
4 2 3 0 2 3 1 3 5 1 4 11 5 4 4 9 5 2 2 8 10 14 14 14 13 13 11 10 9 8 8 7 7 6 5 4 4 3 4 4 4 3 3 3 4 4 4 2 2 3 3 4 4 3 3 4 4 7 8 8 10 9 9 11 11 11 13 12 15 13 12 13 11 12 12 13 12 13 13 16 17 17 17 16 13 13 14 15 14 11 8 7 6 7 7 8 9
2 3 1 1 0 1 2 4 3 3 1 12 11 8 5 18 5 1 1 5 12 14 17 17 16 15 11 10 9 9 7 7 6 7 6 5 4 4 5 3 3 4 4 4 4 4 4 3 3 2 4 3 3 4 3 4 4 5 8 8 11 13 10 10 9 11 11 12 14 15 13 12 12 12 12 10 13 13 15 16 16 15 16 14 13 13 15 16 15 11 10 8 7 8 7 8 10
3 4 2 4 3 3 2 3 2 3 3 16 10 11 10 11 4 9 8 11 12 12 5 6 9 9 8 10 11 10 9 7 6 6 5 6 5 4 1 3 3 3 3 4 5 4 4 4 2 3 4 4 4 4 4 4 4 5 7 8 10 13 14 12 12 13 11 12 13 13 12 13 11 12 12 13 12 13 15 14 13 15 17 14 14 13 13 13 15 13 9 9 8 9 7 8 10
1 2 2 6 5 5 2 3 4 1 9 6 4 13 12 9 7 7 11 4 4 10 12 16 18 18 13 13 11 10 9 8 7 7 5 5 4 3 1 2 3 4 4 5 5 5 5 2 2 5 6 5 4 4 4 5 5 6 6 7 10 12 12 10 12 14 12 14 13 14 14 12 13 12 11 10 11 11 11 13 13 15 15 14 13 11 12 12 13 15 13 8 8 8 8 8 9
3 2 3 2 7 5 4 2 3 6 10 2 1 3 5 14 19 5 11 14 8 6 10 16 19 16 14 13 12 10 8 8 7 6 6 4 4 4 3 4 3 4 4 5 7 5 2 3 4 5 8 6 6 4 5 6 6 6 7 9 10 10 11 10 11 12 12 12 13 15 16 15 14 12 9 10 10 12 12 12 14 12 13 12 14 14 13 12 13 14 15 13 9 8 8 9 8
5 3 3 1 3 1 6 5 3 6 5 3 4 2 10 10 11 14 20 15 9 8 10 11 13 17 18 16 12 9 8 7 8 6 5 4 4 4 4 4 3 4 5 7 5 2 2 4 4 5 8 6 6 7 7 8 7 6 6 8 10 10 11 10 10 11 13 12 12 14 13 12 14 12 13 13 9 13 11 14 14 16 17 18 17 16 14 13 14 15 16 16 11 8 8 9 10
8 2 7 6 5 2 6 4 8 12 11 3 3 2 8 1 6 1 6 7 8 6 7 5 8 14 14 9 8 7 8 6 6 6 5 5 5 5 4 3 4 5 7 6 3 2 3 4 5 6 9 9 7 8 8 9 9 8 7 9 10 9 10 10 10 10 12 13 12 13 12 13 13 13 13 11 11 14 12 14 15 16 16 17 17 15 13 12 13 14 16 15 10 7 8 9 8
2 2 4 4 8 5 8 5 5 8 9 11 3 8 5 8 1 0 1 2 2 1 3 8 10 10 10 10 11 9 8 8 6 5 5 5 5 3 3 3 5 7 6 2 3 3 4 5 5 6 8 10 10 10 10 9 10 9 9 10 11 10 10 10 10 11 11 10 12 14 13 14 12 14 14 10 13 12 14 14 16 16 15 14 17 17 14 11 11 14 15 13 12 8 9 10 9
3 5 6 8 2 5 4 4 0 1 0 16 3 10 9 6 5 2 1 3 1 2 4 8 11 12 10 11 9 9 8 7 7 5 5 4 3 3 4 5 7 5 3 4 4 4 5 6 6 8 8 8 9 10 11 10 11 11 11 10 10 10 11 12 13 14 14 12 12 11 13 14 12 12 12 12 12 11 13 13 14 15 14 14 16 14 13 12 12 11 12 16 14 10 9 10 9
7 3 8 1 2 3 3 4 2 1 5 11 2 12 20 5 15 4 2 2 3 2 5 7 9 10 12 10 9 9 8 7 7 6 5 4 4 4 6 7 4 2 3 4 5 5 5 5 5 7 9 11 11 10 10 10 11 12 13 12 11 11 11 12 13 14 12 13 12 12 13 11 13 11 11 12 11 12 12 14 14 14 14 14 13 14 14 13 12 9 13 15 13 12 11 8 9
4 4 2 2 4 2 0 3 5 2 6 8 6 6 20 13 14 2 4 8 9 7 5 7 10 10 11 9 9 8 7 5 4 4 4 4 5 6 6 4 3 3 3 4 5 6 6 5 4 5 8 10 11 10 10 10 9 9 10 11 12 13 12 12 13 13 12 12 13 15 14 13 14 11 13 10 11 13 10 13 13 15 13 12 14 15 13 13 11 11 12 13 14 13 11 10 9
1 0 2 0 1 5 3 6 3 0 12 6 12 5 23 3 6 9 11 15 13 10 8 12 17 15 12 10 9 9 7 6 5 4 4 5 6 4 3 3 3 4 4 4 5 5 6 5 6 6 8 9 10 11 11 12 12 11 12 11 11 11 12 11 12 11 14 13 15 15 14 15 12 12 12 10 12 11 13 14 12 14 14 13 14 13 12 13 10 11 11 12 14 14 13 11 9
3 1 4 1 2 2 2 1 4 6 6 9 10 11 20 4 6 8 11 15 15 17 17 15 14 12 11 10 10 8 8 6 6 5 5 4 3 3 3 2 3 3 4 4 4 5 5 5 6 6 9 11 11 11 10 11 11 13 14 14 13 12 12 13 13 13 14 13 14 14 14 13 12 13 11 13 13 12 13 13 12 14 13 12 13 13 13 11 11 11 12 12 14 15 13 10 8
10 12 11 13 7 5 3 11 4 5 7 8 8 14 24 3 2 8 8 10 13 14 17 17 12 11 12 10 9 9 8 6 6 5 3 1 2 3 3 3 2 3 4 5 6 5 6 6 6 7 8 9 11 12 11 12 11 12 14 13 14 13 11 13 14 14 13 14 13 12 14 12 14 12 10 13 12 12 11 11 13 14 12 14 11 13 13 14 14 12 12 12 13 15 13 11 9
Wind_Direction
324 324 279 139 90 96 61 360 94 336 60 45 67 32 213 288 132 54 34 346 73 266 230 321 13 35 93 136 126 116 50 55 319 114 114 268 327 322 340 338 332 358 14 12 21 15 352 348 354 358 3 18 352 335 318 327 306 284 274 252 247 248 249 267 298 300 291 286 284 285 280 270 254 246 248 250 262 263 263 264 257 240 240 250 257 271 281 284 281 284 285 282 282 285 279 252 239
303 323 8 145 90 81 264 126 100 23 40 60 30 100 193 306 42 121 117 124 191 183 216 156 63 79 110 121 139 77 35 34 4 81 151 301 340 335 343 337 327 10 20 18 21 28 23 8 0 358 349 352 343 333 322 316 312 308 289 269 258 255 261 241 245 257 269 278 279 275 269 264 265 255 250 252 245 255 266 268 263 254 247 247 262 274 280 281 280 278 278 279 279 279 281 242 221
316 3 41 33 38 72 102 37 191 69 86 88 274 200 341 32 110 218 185 171 198 211 107 81 65 59 58 70 48 50 178 15 23 7 92 32 9 327 330 327 341 11 23 19 17 16 17 19 20 11 9 6 1 351 347 343 336 327 309 311 304 286 273 270 247 248 256 257 258 258 261 268 266 256 254 257 255 252 254 259 260 258 265 268 269 271 274 276 275 272 274 274 275 275 272 229 211
1 341 117 72 247 28 77 31 89 120 114 190 69 287 196 166 197 202 230 232 208 142 89 38 53 306 75 44 87 66 92 29 57 335 342 8 339 299 320 342 358 20 31 25 22 19 11 3 5 8 10 10 9 6 359 354 348 340 332 319 308 303 296 288 273 249 249 245 244 254 260 271 269 258 244 254 264 264 259 259 264 268 269 269 269 270 268 268 271 274 271 265 267 264 259 230 205
21 319 103 104 107 344 101 102 129 94 139 197 152 260 252 215 178 202 240 259 303 76 81 125 88 29 83 83 23 71 306 281 7 20 344 331 339 344 356 3 19 29 29 24 27 26 24 23 17 11 6 3 5 3 358 355 353 350 344 339 326 315 309 302 298 299 293 286 277 267 266 259 271 284 284 277 267 264 267 265 265 267 271 275 275 273 272 269 266 273 274 266 259 253 248 239 206
56 52 24 95 130 182 49 43 44 79 221 149 116 224 220 223 149 169 165 317 332 66 83 62 125 165 45 34 29 77 328 53 338 7 3 350 332 339 12 24 31 33 24 26 26 28 24 28 28 24 21 15 7 360 357 354 354 353 352 349 344 337 330 320 311 304 300 282 270 270 266 262 266 264 257 260 269 285 285 276 268 263 267 272 275 274 271 271 268 268 272 274 279 291 301 286 210
347 43 357 23 14 57 133 115 111 158 322 149 173 201 217 223 171 123 167 81 32 62 59 110 113 98 84 137 56 67 40 1 48 336 3 272 344 14 11 31 36 30 21 22 21 19 16 22 25 26 25 22 19 17 13 5 355 352 352 352 351 350 344 338 337 335 318 297 273 264 266 266 263 266 273 277 280 282 276 271 270 269 263 264 264 269 271 270 267 264 268 272 272 270 267 280 262
60 118 289 102 286 51 55 154 171 146 240 154 193 158 242 206 145 100 183 102 308 89 54 120 106 89 16 80 102 329 15 30 347 310 318 360 21 19 20 28 36 28 21 18 18 17 11 16 17 21 22 24 25 23 19 15 12 2 352 348 350 350 348 346 344 344 337 331 324 310 299 289 268 255 265 271 280 278 275 268 262 265 269 264 257 262 266 268 268 265 259 262 265 262 260 262 265
347 98 26 66 51 22 63 88 92 228 349 2 274 229 223 119 114 122 75 116 117 61 89 143 115 83 156 79 83 345 359 347 350 347 5 15 25 21 34 31 36 28 23 21 16 11 16 16 17 17 18 20 22 23 23 20 17 13 8 359 351 348 346 346 344 343 343 335 328 318 300 293 295 283 261 257 262 265 267 265 263 258 255 255 256 256 258 260 264 265 261 255 256 256 255 258 258
5 93 329 118 133 47 55 7 86 195 182 246 196 349 77 149 46 76 131 68 89 84 43 59 83 109 131 90 107 357 347 333 328 19 1 18 22 32 42 34 39 35 27 21 20 16 14 14 17 16 16 16 16 17 17 18 18 18 14 10 6 359 354 348 342 340 339 338 335 323 318 313 306 297 296 287 263 258 260 262 260 255 248 247 249 253 257 258 260 261 261 259 258 258 252 245 251
345 6 139 67 36 100 135 229 119 70 173 326 328 292 258 120 95 52 57 102 100 112 175 77 65 121 121 92 101 251 325 351 19 358 325 358 28 33 39 31 34 37 31 22 17 20 17 17 15 17 17 16 14 14 13 12 12 12 13 12 11 7 1 356 351 345 340 337 333 330 327 317 310 304 300 288 285 276 256 259 265 265 258 253 253 257 258 258 255 257 257 257 255 252 251 250 246
339 3 4 109 116 147 214 136 173 222 293 4 159 307 354 113 109 98 60 88 54 100 66 24 159 148 74 105 12 329 339 9 342 308 331 354 28 23 31 31 30 29 31 24 20 20 17 16 16 13 16 16 15 13 11 9 10 9 9 8 6 6 6 3 359 354 348 341 337 333 329 326 319 312 305 296 297 294 284 261 265 268 265 263 259 256 257 259 257 253 254 254 250 242 240 241 245
101 73 70 80 203 110 147 108 195 162 335 301 162 66 14 51 107 121 82 76 13 63 5 339 149 88 108 117 180 323 18 327 334 340 7 32 32 23 28 31 26 28 25 22 26 18 15 14 14 13 12 14 12 13 11 9 7 8 8 6 4 2 1 2 0 357 354 349 344 338 332 327 321 316 312 306 298 291 292 291 272 266 269 266 265 263 260 259 261 260 252 248 248 242 234 226 233
102 172 120 62 14 111 127 164 37 133 352 255 263 278 29 95 66 139 112 55 9 59 236 293 102 108 101 97 24 336 314 313 325 356 27 37 37 37 33 26 28 27 22 26 27 20 16 12 12 11 9 11 11 9 7 4 4 7 8 5 3 1 360 358 357 355 353 348 344 338 334 329 322 319 316 315 306 298 292 292 288 276 264 260 264 264 262 256 261 266 254 243 244 245 241 228 225
62 125 82 110 12 70 244 120 195 130 183 97 289 88 55 26 91 50 98 111 22 280 250 30 268 28 210 134 164 169 230 303 328 344 44 39 37 39 35 30 30 26 22 24 23 22 17 14 14 13 12 8 8 8 6 1 1 2 6 4 3 1 359 357 355 354 351 347 345 343 339 332 324 319 313 310 310 305 295 281 282 284 276 267 260 255 255 254 241 240 243 242 243 244 244 239 229
143 78 79 82 10 97 315 86 38 95 176 183 323 144 77 21 4 81 323 143 130 337 65 27 3 132 125 110 152 170 202 297 339 28 60 48 33 40 33 28 26 21 18 18 21 18 15 17 16 16 15 12 9 3 1 2 359 2 5 2 359 357 357 357 355 353 349 348 345 343 339 335 330 324 319 314 302 298 292 289 283 284 281 274 264 259 255 251 245 243 240 241 241 240 242 242 237
51 83 44 21 18 85 278 119 120 226 241 264 294 273 100 66 350 73 25 33 85 31 60 4 83 36 91 129 160 170 170 198 10 57 52 41 31 29 24 23 14 20 13 9 11 7 11 16 14 17 16 14 10 4 1 1 355 357 1 1 360 356 353 354 354 354 352 348 347 343 340 340 335 331 326 318 314 310 300 294 289 286 284 276 272 266 260 258 260 248 240 239 240 239 238 241 240
59 57 113 28 211 73 206 164 190 176 116 241 301 152 116 124 169 160 62 39 85 71 74 62 53 54 97 141 143 155 157 76 42 60 49 48 34 33 28 12 14 7 5 2 2 3 7 8 7 14 11 13 9 5 3 2 357 356 359 358 356 355 354 354 351 353 353 350 347 343 341 337 336 333 328 322 317 311 306 298 290 286 288 282 273 267 263 256 251 249 242 240 239 240 239 239 240
86 120 79 195 199 268 179 168 177 107 180 206 266 291 132 165 143 197 89 133 103 78 58 70 89 76 71 70 79 77 67 54 52 61 63 59 49 48 34 10 15 1 4 359 356 2 3 0 1 10 11 7 4 3 2 0 357 356 359 359 355 352 352 352 352 354 352 347 344 342 341 339 335 332 329 323 314 307 304 298 293 288 285 281 276 270 262 258 255 251 247 241 240 240 242 240 233
204 105 20 250 212 46 281 193 167 193 155 149 174 191 91 173 143 145 129 158 141 130 140 73 123 137 123 100 69 68 67 60 58 69 72 68 62 64 45 30 16 9 346 340 340 347 3 4 356 3 2 2 2 355 357 357 355 352 355 358 356 352 352 350 350 351 348 345 341 341 344 341 339 334 330 328 326 323 321 315 306 297 289 282 277 274 273 264 255 249 242 241 244 242 238 236 231
261 69 168 219 203 122 243 198 167 157 135 152 155 6 85 38 147 125 146 101 234 212 188 161 173 162 150 135 108 81 75 70 62 66 71 68 72 93 95 57 51 352 338 320 343 351 355 354 352 345 349 355 357 351 353 351 347 345 347 352 352 351 349 348 349 347 345 343 341 341 344 343 341 336 333 332 332 329 325 322 320 314 308 300 292 281 270 271 274 263 254 248 241 237 234 231 226
101 220 195 180 175 91 225 214 193 142 137 102 122 120 182 137 50 133 153 148 200 192 198 184 147 150 145 138 128 105 94 87 73 65 71 101 111 71 39 14 355 345 336 5 328 339 338 342 347 337 350 347 354 349 347 339 345 344 344 344 346 342 344 344 346 345 342 342 339 341 341 343 341 337 336 336 335 335 332 328 325 322 316 306 296 287 280 270 256 251 246 242 240 234 233 228 225
305 313 276 204 214 134 208 215 224 158 101 113 122 190 50 79 100 119 100 180 208 158 139 142 137 141 139 123 124 102 104 106 101 93 86 60 21 325 30 1 30 350 346 342 324 330 329 339 344 345 346 340 340 331 334 343 343 334 332 333 344 333 339 339 340 339 337 337 336 339 341 340 338 336 336 338 337 337 332 329 327 325 319 312 303 293 285 273 259 252 244 241 238 235 235 231 228
130 229 331 305 157 153 184 181 126 124 101 138 186 87 132 145 133 130 94 3 122 118 126 132 131 124 127 114 119 129 137 136 141 156 168 161 184 203 199 107 342 277 359 322 338 321 325 325 330 345 328 341 336 338 348 353 345 344 337 336 339 333 340 334 330 324 325 331 331 332 335 333 333 332 333 333 332 330 326 324 326 322 318 315 312 302 294 283 272 259 254 248 240 235 233 233 230
144 282 240 269 163 149 207 168 142 115 84 32 103 127 203 188 161 95 132 133 125 124 121 123 127 127 124 123 130 131 124 133 152 198 228 240 216 261 179 217 283 138 11 340 326 328 317 318 337 348 347 350 352 350 360 354 354 351 348 351 350 346 344 339 332 322 323 322 322 323 328 328 328 326 327 328 326 324 321 326 326 321 317 315 313 306 299 292 278 265 251 246 241 233 231 233 230
179 218 102 330 302 301 164 125 131 137 143 111 61 336 243 138 113 50 169 152 143 131 127 135 135 134 138 137 141 137 132 143 174 176 192 256 302 31 349 350 342 38 335 339 351 325 320 333 343 345 349 351 353 2 359 356 353 351 350 350 348 348 344 337 334 332 327 325 322 316 318 319 319 319 318 320 323 320 320 321 322 319 318 315 312 307 305 298 294 285 267 248 235 233 230 229 226
182 273 210 244 273 325 296 188 198 176 133 129 117 186 186 228 22 225 207 180 150 137 143 154 142 144 151 148 153 148 133 149 160 174 2 312 314 11 348 355 27 341 6 5 345 335 326 344 339 340 343 352 359 6 357 353 349 349 342 341 345 345 339 336 336 332 330 328 325 320 314 314 312 312 313 314 311 312 315 317 316 319 317 317 313 308 306 300 295 287 281 272 260 251 240 229 223
340 262 327 310 321 244 229 105 176 143 276 143 117 178 191 206 1 215 175 178 163 147 154 155 148 152 156 158 151 163 149 174 160 110 176 200 16 4 5 18 347 341 17 353 331 312 336 331 321 328 345 351 2 1 356 348 345 334 330 340 343 341 337 334 330 328 328 327 325 322 319 317 314 308 307 309 310 308 303 306 311 315 314 314 312 310 309 305 297 290 283 277 262 245 237 237 226
253 15 310 297 346 339 255 193 202 157 217 144 130 78 242 236 221 220 163 156 167 151 155 160 160 162 163 160 160 164 164 171 188 195 218 204 225 92 23 340 173 350 345 322 307 329 327 316 323 324 341 351 0 356 351 339 339 345 347 347 344 344 340 336 330 326 322 321 319 322 322 321 316 310 306 304 303 302 300 298 300 304 308 308 311 310 309 306 302 297 288 274 266 259 250 244 238
52 38 184 336 356 328 294 146 71 152 237 160 150 269 234 219 225 153 153 158 155 150 164 170 168 168 167 164 163 172 176 191 224 208 203 191 141 60 34 346 352 3 330 325 331 333 306 321 313 319 340 351 354 355 355 353 352 348 348 345 347 346 343 337 331 326 322 319 321 321 321 319 316 311 308 305 302 296 293 292 292 294 298 305 306 309 307 307 302 298 294 286 269 256 248 240 232
183 269 64 175 4 278 299 82 151 163 180 181 132 239 266 257 248 190 168 166 165 170 173 177 174 174 170 169 164 169 195 190 192 208 197 138 89 33 29 1 358 346 336 321 313 296 310 319 313 330 344 357 0 3 359 358 353 350 349 348 348 346 340 334 330 326 322 320 320 318 320 318 317 313 309 304 298 293 289 288 287 287 289 296 303 304 305 304 301 298 300 294 280 260 249 240 229
33 43 307 319 137 279 301 225 157 187 301 168 108 264 254 247 227 186 176 173 170 170 179 180 180 176 177 173 174 171 192 203 223 235 250 150 79 82 49 12 6 3 297 274 297 305 316 325 325 349 359 9 7 3 0 356 353 350 347 345 343 342 336 334 333 328 325 324 324 323 323 320 316 314 312 308 300 293 288 284 280 281 286 289 294 301 303 302 302 298 296 296 294 275 254 244 229
350 68 260 283 189 261 337 347 232 233 143 278 178 240 303 288 216 183 185 174 178 171 184 186 184 183 177 181 178 183 187 224 213 226 220 177 173 116 106 58 27 6 271 296 311 309 323 334 333 4 10 10 5 360 356 352 353 349 347 345 340 338 338 336 332 330 329 330 330 325 323 320 318 314 309 305 298 293 287 282 282 276 275 283 288 295 296 298 299 300 297 296 289 286 267 245 234
314 20 292 212 245 279 263 306 307 196 176 252 217 227 249 242 180 183 189 184 175 184 188 188 188 183 182 181 184 183 195 190 183 193 209 199 160 134 120 125 65 341 305 303 305 310 324 327 348 12 10 7 359 354 354 354 351 347 345 342 341 338 338 335 333 334 331 328 325 322 322 316 311 307 304 300 295 289 285 281 279 279 273 273 281 286 291 294 296 296 299 299 300 294 282 259 240
282 315 331 311 291 211 243 292 268 103 251 234 244 241 260 240 198 196 196 185 188 196 188 186 185 180 184 185 187 191 192 189 195 192 196 198 157 123 136 102 27 341 325 337 330 323 333 344 6 8 7 0 358 357 357 356 349 345 342 341 340 337 334 333 332 327 329 326 324 322 319 312 310 309 309 306 300 295 290 284 282 277 273 271 274 281 288 292 292 294 295 298 296 293 292 281 250
242 239 253 239 280 293 253 239 272 180 250 251 235 243 256 240 204 212 205 195 197 204 182 187 190 190 186 190 192 189 196 204 205 188 202 208 150 131 105 266 9 338 358 357 327 334 344 3 12 8 3 358 358 4 359 354 350 348 345 342 338 336 329 327 329 326 326 326 320 316 310 308 320 326 322 313 305 299 293 288 283 280 273 266 273 281 283 287 294 298 296 297 299 299 294 287 266
233 178 209 253 237 278 273 256 259 209 281 245 249 245 253 258 214 209 203 186 210 195 197 197 195 191 193 193 192 196 194 202 200 187 196 195 129 127 137 50 17 353 355 332 329 340 357 16 13 7 356 1 7 4 0 353 349 344 344 339 330 331 324 321 318 322 319 314 314 314 318 322 320 317 316 318 312 309 304 297 290 282 273 267 267 271 273 277 285 286 290 288 296 301 300 295 284
209 249 257 281 215 256 267 280 350 344 175 285 286 259 254 255 243 223 197 184 208 202 202 201 197 197 194 190 192 195 204 223 176 204 218 225 74 56 17 31 36 19 319 319 339 346 6 16 15 350 353 5 11 6 352 350 354 346 333 329 326 319 323 323 322 321 315 312 318 321 320 316 313 312 314 310 306 302 302 301 294 286 280 275 272 268 269 267 277 286 288 292 271 284 287 286 294
189 205 254 320 271 242 283 296 301 242 145 264 283 270 258 259 259 230 197 200 211 206 198 198 189 191 193 192 191 191 191 197 192 202 208 250 324 40 15 347 317 247 283 313 336 3 3 3 339 351 355 7 0 359 355 347 341 338 336 323 327 319 309 298 300 306 310 316 318 318 316 314 316 313 310 307 301 298 297 299 298 295 286 281 278 271 266 270 264 278 282 280 297 273 272 281 280
202 199 295 250 240 14 304 295 8 324 175 288 286 276 262 255 256 248 210 203 218 214 213 211 198 190 190 190 185 180 187 188 184 180 186 222 315 266 345 323 278 306 331 338 346 343 330 332 330 353 358 4 359 350 349 337 333 328 325 321 318 315 312 312 304 291 294 309 313 314 309 314 310 305 308 304 303 310 311 306 303 297 292 283 273 273 271 268 264 265 273 266 274 295 296 294 284
272 191 221 258 277 249 207 279 327 293 299 246 283 280 256 220 240 255 241 211 219 210 188 199 215 216 195 184 193 182 181 184 176 194 208 227 64 86 231 250 295 335 319 309 315 300 306 305 309 343 5 357 341 336 340 338 335 334 330 322 313 309 305 309 315 317 318 311 303 310 313 307 302 298 299 305 312 310 306 301 298 295 294 288 279 271 268 263 259 250 260 268 259 278 292 292 291
312 230 204 229 244 273 281 325 2 359 322 313 53 323 226 254 219 241 322 136 220 200 191 202 199 194 193 194 195 198 194 189 167 181 187 180 187 267 297 310 320 307 303 292 266 263 271 285 300 357 358 342 336 338 349 352 347 341 337 337 334 331 320 323 322 322 322 324 322 318 315 317 309 304 302 303 305 305 302 299 296 299 297 295 288 276 268 264 260 254 240 244 259 255 272 288 288
48 272 197 229 237 239 291 322 22 299 250 306 56 221 286 121 223 238 222 213 229 186 209 207 195 197 198 193 188 186 185 198 183 156 162 157 224 221 284 280 258 278 272 268 270 268 277 280 291 339 334 322 327 342 359 355 341 337 333 324 318 315 311 305 304 298 298 305 308 310 312 309 310 306 304 305 304 302 301 301 299 295 294 291 290 283 273 265 260 247 230 225 235 248 263 277 280
236 250 110 106 118 257 265 323 201 250 304 283 235 166 268 286 250 239 212 213 224 217 221 210 202 199 198 191 185 185 189 179 173 174 175 198 219 206 229 251 263 235 251 270 268 278 272 274 302 324 324 336 339 350 354 360 334 330 324 319 309 302 296 298 308 309 306 302 303 305 306 308 307 303 302 303 304 307 306 306 307 303 299 297 296 287 280 269 259 244 229 225 219 215 247 262 277
220 213 148 242 219 249 251 271 274 266 22 292 255 144 277 251 274 337 145 224 240 234 217 211 205 204 194 185 188 194 190 183 165 165 188 200 215 229 219 247 243 251 257 250 268 268 260 259 276 299 327 338 327 338 337 331 327 316 312 307 305 296 292 293 298 300 303 303 301 301 302 305 302 302 299 303 305 305 303 300 298 297 295 297 297 295 288 275 257 243 230 225 214 218 221 249 262
281 169 162 45 45 159 233 260 296 330 62 273 261 169 208 273 183 135 338 261 252 235 220 211 203 200 188 180 192 196 189 184 174 168 181 204 216 226 224 224 268 243 244 259 269 271 265 243 257 300 320 328 315 320 313 309 306 304 301 302 299 301 301 295 291 295 298 303 301 301 303 301 304 302 300 296 303 304 301 298 297 296 293 292 296 296 297 286 266 245 235 222 221 224 219 234 248
122 65 3 349 12 15 34 61 89 47 252 245 239 180 182 281 191 187 160 217 211 226 222 199 206 204 188 189 190 187 181 174 175 180 200 207 222 226 235 237 247 281 278 273 271 266 248 244 262 325 311 319 322 307 300 294 296 291 293 296 299 301 302 300 302 299 300 300 300 300 302 302 298 299 302 302 299 298 296 296 297 299 296 291 290 295 299 301 293 274 245 228 219 224 219 229 242
107 42 60 351 318 8 34 341 41 127 264 257 205 192 195 215 276 226 227 250 208 199 195 195 200 198 184 190 193 183 176 171 174 177 203 229 267 278 218 259 256 262 286 277 271 255 243 267 340 329 322 321 314 300 297 295 294 293 285 292 297 298 297 296 298 297 301 300 300 300 303 301 299 299 297 295 296 297 297 295 296 295 294 290 286 292 294 294 293 286 269 241 229 230 226 226 239
72 63 36 25 284 7 316 44 303 190 234 230 89 132 311 232 244 223 243 243 241 216 202 200 198 185 180 191 188 182 174 166 172 185 205 226 217 238 256 244 259 271 258 266 266 256 277 340 333 323 315 314 304 295 298 299 299 294 297 299 298 297 291 287 286 291 295 298 300 300 302 302 302 298 293 294 294 299 299 293 296 294 289 293 308 303 293 293 296 292 279 255 234 229 230 229 234
112 150 161 104 325 13 272 255 229 295 277 257 89 101 248 270 273 226 241 241 235 221 222 211 186 173 183 185 180 172 171 172 180 188 199 208 218 225 216 223 238 254 261 261 261 287 326 317 313 311 305 308 304 307 306 307 303 295 293 295 296 296 290 286 287 288 293 292 293 293 293 293 294 292 297 294 296 296 292 292 289 289 296 303 297 292 295 300 300 296 284 263 244 234 237 236 240
198 134 147 186 150 191 277 284 279 285 286 284 239 55 233 170 237 276 255 292 282 226 221 191 169 176 176 166 157 161 173 185 179 194 196 208 222 210 208 222 241 250 255 259 291 318 307 307 314 314 309 311 313 311 314 313 309 303 295 291 291 290 287 288 287 287 289 291 289 288 286 287 286 291 289 292 294 294 290 288 290 292 294 293 292 293 298 298 300 298 291 266 248 234 233 242 242
169 166 79 88 228 138 222 213 245 299 324 302 156 214 197 225 49 279 311 5 17 41 112 132 145 154 157 164 171 176 177 182 193 192 217 232 223 216 214 244 247 249 253 297 327 306 311 308 308 305 306 312 318 317 316 312 306 299 294 293 291 289 288 288 288 287 285 282 285 286 285 285 284 287 288 290 291 292 291 288 289 287 288 289 295 294 292 294 295 295 293 277 255 231 237 239 242
221 106 205 210 160 153 273 350 203 59 80 260 215 282 260 313 253 228 35 83 16 84 141 146 159 167 167 171 173 178 181 184 189 200 209 231 250 235 225 233 243 253 318 337 312 310 303 303 307 310 314 314 314 315 314 314 307 305 299 294 291 293 294 293 291 290 288 285 282 282 283 283 281 281 286 287 291 287 286 287 288 290 288 286 284 285 289 286 288 287 288 287 264 247 234 239 243
103 204 238 200 138 101 127 236 317 183 225 270 139 271 285 93 293 64 73 171 205 192 176 170 165 171 176 180 180 181 184 190 195 197 200 207 212 224 234 239 250 318 325 310 299 295 290 291 302 313 318 318 315 315 313 308 307 305 303 302 300 297 296 292 290 290 290 290 288 288 285 283 282 280 281 287 284 285 285 286 284 282 282 278 282 289 289 282 282 284 287 285 273 255 247 238 242
160 189 241 126 241 297 29 86 281 265 249 277 261 284 268 238 252 130 224 204 208 201 191 175 186 193 190 184 188 188 189 187 194 207 219 231 226 232 237 264 320 330 285 261 276 283 288 300 307 312 311 310 310 312 308 302 299 298 298 301 302 303 299 295 291 287 287 284 288 289 287 283 283 279 281 282 282 283 281 283 282 282 283 291 291 284 280 281 284 286 285 283 276 261 251 249 245
71 358 319 234 110 228 152 199 221 157 274 286 282 338 282 125 213 201 206 204 197 180 187 200 199 193 186 187 184 185 190 191 194 200 215 221 232 236 256 297 305 279 267 268 275 286 300 312 320 318 310 307 308 309 309 306 306 301 299 299 298 295 294 292 291 294 295 291 292 290 287 285 283 283 282 278 280 280 282 283 285 286 285 282 281 281 281 284 283 277 282 281 277 267 256 252 256
190 165 248 336 210 223 125 312 164 215 263 255 287 295 273 137 196 178 196 200 195 178 192 201 205 194 195 186 178 185 187 190 193 200 214 227 250 287 293 283 255 256 257 277 287 296 301 311 316 316 313 311 311 308 306 304 307 306 306 306 303 302 299 298 295 293 292 291 293 291 287 285 287 284 283 281 280 280 281 280 279 280 280 285 292 292 291 286 283 282 280 282 286 276 260 258 258
181 179 208 198 175 253 246 258 107 215 217 253 242 266 269 187 224 198 182 204 193 186 191 201 195 189 191 184 187 183 183 194 191 209 203 266 295 282 291 294 270 273 285 294 299 310 323 319 312 313 309 308 310 310 310 307 306 303 303 303 303 302 300 300 297 296 293 295 293 290 288 287 286 283 279 281 279 281 278 276 280 281 283 288 288 291 291 286 282 281 283 288 289 283 270 260 258